Year,Month,Day,Hour,Minute,Value (Times are PST for temperature in C)
2022,04,24,13,40,14.50
2022,04,24,13,41,14.50
2022,04,24,13,42,14.50
2022,04,24,13,43,14.60
2022,04,24,13,44,14.60
2022,04,24,13,45,14.70
2022,04,24,13,46,14.70
2022,04,24,13,47,14.80
2022,04,24,13,48,14.80
2022,04,24,13,49,14.90
2022,04,24,13,50,15.00
2022,04,24,13,51,15.00
2022,04,24,13,52,15.10
2022,04,24,13,53,15.10
2022,04,24,13,54,15.10
2022,04,24,13,55,15.10
2022,04,24,13,56,15.10
2022,04,24,13,57,15.20
2022,04,24,13,58,15.20
2022,04,24,13,59,15.20
2022,04,24,14,00,15.30
2022,04,24,14,01,15.30
2022,04,24,14,02,15.30
2022,04,24,14,03,15.40
2022,04,24,14,04,15.40
2022,04,24,14,05,15.40
2022,04,24,14,06,15.40
2022,04,24,14,07,15.50
2022,04,24,14,08,15.40
2022,04,24,14,09,15.40
2022,04,24,14,10,15.40
2022,04,24,14,11,15.40
2022,04,24,14,12,15.40
2022,04,24,14,13,15.40
2022,04,24,14,14,15.40
2022,04,24,14,15,15.40
2022,04,24,14,16,15.40
2022,04,24,14,17,15.40
2022,04,24,14,18,15.40
2022,04,24,14,19,15.40
2022,04,24,14,20,15.40
2022,04,24,14,21,15.40
2022,04,24,14,22,15.30
2022,04,24,14,23,15.30
2022,04,24,14,24,15.30
2022,04,24,14,25,15.30
2022,04,24,14,26,15.30
2022,04,24,14,27,15.30
2022,04,24,14,28,15.20
2022,04,24,14,29,15.20
2022,04,24,14,30,15.20
2022,04,24,14,31,15.20
2022,04,24,14,32,15.20
2022,04,24,14,33,15.20
2022,04,24,14,34,15.30
2022,04,24,14,35,15.30
2022,04,24,14,36,15.30
2022,04,24,14,37,15.30
2022,04,24,14,38,15.30
2022,04,24,14,39,15.30
2022,04,24,14,40,15.40
2022,04,24,14,41,15.40
2022,04,24,14,42,15.40
2022,04,24,14,43,15.40
2022,04,24,14,44,15.40
2022,04,24,14,45,15.40
2022,04,24,14,46,15.40
2022,04,24,14,47,15.50
2022,04,24,14,48,15.50
2022,04,24,14,49,15.60
2022,04,24,14,50,15.60
2022,04,24,14,51,15.70
2022,04,24,14,52,15.70
2022,04,24,14,53,15.70
2022,04,24,14,54,15.70
2022,04,24,14,55,15.80
2022,04,24,14,56,15.80
2022,04,24,14,57,15.80
2022,04,24,14,58,15.80
2022,04,24,14,59,15.80
2022,04,24,15,00,15.70
2022,04,24,15,01,15.70
2022,04,24,15,02,15.70
2022,04,24,15,03,15.60
2022,04,24,15,04,15.60
2022,04,24,15,05,15.60
2022,04,24,15,06,15.60
2022,04,24,15,07,15.60
2022,04,24,15,08,15.50
2022,04,24,15,09,15.50
2022,04,24,15,10,15.40
2022,04,24,15,11,15.40
2022,04,24,15,12,15.40
2022,04,24,15,13,15.40
2022,04,24,15,14,15.40
2022,04,24,15,15,15.30
2022,04,24,15,16,15.30
2022,04,24,15,17,15.30
2022,04,24,15,18,15.30
2022,04,24,15,19,15.30
2022,04,24,15,20,15.30
2022,04,24,15,21,15.30
2022,04,24,15,22,15.30
2022,04,24,15,23,15.30
2022,04,24,15,24,15.40
2022,04,24,15,25,15.40
2022,04,24,15,26,15.50
2022,04,24,15,27,15.60
2022,04,24,15,28,15.70
2022,04,24,15,29,15.80
2022,04,24,15,30,15.80
2022,04,24,15,31,15.90
2022,04,24,15,32,16.00
2022,04,24,15,33,16.00
2022,04,24,15,34,16.10
2022,04,24,15,35,16.10
2022,04,24,15,36,16.20
2022,04,24,15,37,16.30
2022,04,24,15,38,16.30
2022,04,24,15,39,16.40
2022,04,24,15,40,16.40
2022,04,24,15,41,16.50
2022,04,24,15,42,16.60
2022,04,24,15,43,16.60
2022,04,24,15,44,16.70
2022,04,24,15,45,16.70
2022,04,24,15,46,16.80
2022,04,24,15,47,16.80
2022,04,24,15,48,16.90
2022,04,24,15,49,16.90
2022,04,24,15,50,16.90
2022,04,24,15,51,16.90
2022,04,24,15,52,16.90
2022,04,24,15,53,16.90
2022,04,24,15,54,16.90
2022,04,24,15,55,17.00
2022,04,24,15,56,17.00
2022,04,24,15,57,17.00
2022,04,24,15,58,17.00
2022,04,24,15,59,17.10
2022,04,24,16,00,17.10
2022,04,24,16,01,17.10
2022,04,24,16,02,17.20
2022,04,24,16,03,17.20
2022,04,24,16,04,17.20
2022,04,24,16,05,17.20
2022,04,24,16,06,17.20
2022,04,24,16,07,17.10
2022,04,24,16,08,17.10
2022,04,24,16,09,17.10
2022,04,24,16,10,17.10
2022,04,24,16,11,17.10
2022,04,24,16,12,17.10
2022,04,24,16,13,17.10
2022,04,24,16,14,17.20
2022,04,24,16,15,17.20
2022,04,24,16,16,17.20
2022,04,24,16,17,17.20
2022,04,24,16,18,17.30
2022,04,24,16,19,17.30
2022,04,24,16,20,17.30
2022,04,24,16,21,17.30
2022,04,24,16,22,17.30
2022,04,24,16,23,17.30
2022,04,24,16,24,17.20
2022,04,24,16,25,17.20
2022,04,24,16,26,17.20
2022,04,24,16,27,17.10
2022,04,24,16,28,17.10
2022,04,24,16,29,17.10
2022,04,24,16,30,17.10
2022,04,24,16,31,17.10
2022,04,24,16,32,17.00
2022,04,24,16,33,17.00
2022,04,24,16,34,17.00
2022,04,24,16,35,17.00
2022,04,24,16,36,17.00
2022,04,24,16,37,17.00
2022,04,24,16,38,17.00
2022,04,24,16,39,17.00
2022,04,24,16,40,17.00
2022,04,24,16,41,17.00
2022,04,24,16,42,17.00
2022,04,24,16,43,17.00
2022,04,24,16,44,16.90
2022,04,24,16,45,17.00
2022,04,24,16,46,17.00
2022,04,24,16,47,16.90
2022,04,24,16,48,16.90
2022,04,24,16,49,16.90
2022,04,24,16,50,16.90
2022,04,24,16,51,16.90
2022,04,24,16,52,16.90
2022,04,24,16,53,16.90
2022,04,24,16,54,16.80
2022,04,24,16,55,16.80
2022,04,24,16,56,16.80
2022,04,24,16,57,16.80
2022,04,24,16,58,16.80
2022,04,24,16,59,16.80
2022,04,24,17,00,16.70
2022,04,24,17,01,16.70
2022,04,24,17,02,16.70
2022,04,24,17,03,16.60
2022,04,24,17,04,16.60
2022,04,24,17,05,16.60
2022,04,24,17,06,16.60
2022,04,24,17,07,16.60
2022,04,24,17,08,16.50
2022,04,24,17,09,16.50
2022,04,24,17,10,16.50
2022,04,24,17,11,16.40
2022,04,24,17,12,16.40
2022,04,24,17,13,16.40
2022,04,24,17,14,16.30
2022,04,24,17,15,16.30
2022,04,24,17,16,16.30
2022,04,24,17,17,16.30
2022,04,24,17,18,16.20
2022,04,24,17,19,16.20
2022,04,24,17,20,16.20
2022,04,24,17,21,16.20
2022,04,24,17,22,16.10
2022,04,24,17,23,16.10
2022,04,24,17,24,16.10
2022,04,24,17,25,16.10
2022,04,24,17,26,16.00
2022,04,24,17,27,16.00
2022,04,24,17,28,15.90
2022,04,24,17,29,15.90
2022,04,24,17,30,15.90
2022,04,24,17,31,15.90
2022,04,24,17,32,15.80
2022,04,24,17,33,15.80
2022,04,24,17,34,15.80
2022,04,24,17,35,15.80
2022,04,24,17,36,15.70
2022,04,24,17,37,15.70
2022,04,24,17,38,15.70
2022,04,24,17,39,15.60
2022,04,24,17,40,15.60
2022,04,24,17,41,15.60
2022,04,24,17,42,15.50
2022,04,24,17,43,15.50
2022,04,24,17,44,15.40
2022,04,24,17,45,15.40
2022,04,24,17,46,15.40
2022,04,24,17,47,15.30
2022,04,24,17,48,15.30
2022,04,24,17,49,15.30
2022,04,24,17,50,15.30
2022,04,24,17,51,15.20
2022,04,24,17,52,15.20
2022,04,24,17,53,15.20
2022,04,24,17,54,15.20
2022,04,24,17,55,15.10
2022,04,24,17,56,15.10
2022,04,24,17,57,15.10
2022,04,24,17,58,15.10
2022,04,24,17,59,15.10
2022,04,24,18,00,15.10
2022,04,24,18,01,15.00
2022,04,24,18,02,15.00
2022,04,24,18,03,15.00
2022,04,24,18,04,15.00
2022,04,24,18,05,14.90
